Simultaneous Nadir Overpasses (SNOs) Predictions

Prediction of SNOs between AURA and NPP Satellite Orbit:

Table of predicted SNOs for the next 14.0 days since TLE Epoch: 2/3/2012
Index Date (AURA) Time (AURA) AURA Lat,Lon Date (NPP) Time (NPP) NPP Lat,Lon Distance(km) Time Diff (sec)
1 02/04/2012 19:57:39 79.83, 139.79 02/04/2012 19:57:30 79.83, 139.85 1.24 9
2 02/04/2012 20:47:01 -80.01, -51.14 02/04/2012 20:48:10 -80.00, -51.19 1.03 69
3 02/07/2012 11:24:48 -79.63, 86.52 02/07/2012 11:23:49 -79.62, 86.40 2.41 59
4 02/07/2012 12:14:07 79.88,-103.91 02/07/2012 12:14:25 79.88,-103.94 0.66 18
5 02/10/2012 03:41:13 -79.81,-156.22 02/10/2012 03:40:41 -79.82,-156.08 2.85 32
6 02/10/2012 04:30:35 79.95, 12.54 02/10/2012 04:31:21 79.95, 12.46 1.60 46
7 02/12/2012 19:57:40 -79.90, -39.62 02/12/2012 19:57:37 -79.91, -39.48 2.69 3
8 02/12/2012 20:46:20 81.23, 143.15 02/12/2012 20:47:34 81.01, 143.49 25.48 74
9 02/15/2012 11:24:47 79.72, -92.81 02/15/2012 11:23:57 79.72, -92.85 0.91 50




NCC Satellite Simultaneous Nadir Overpasses (SNOs) Prediction Service
